This demonstration page uses our WeatherBlox Daily Observations layout. Learn more.

Left ArrowRight Arrow

Hourly Observations for July 18, 2021

Temp ( °F °C ) Dew Point ( °F °C ) Humidity (%) Winds ( mph kmh ) Pressure ( in mb ) Visibility ( mi km ) Precip ( " mm )
12:53 am 00:53 Clear 66 18.9 43 6.1 43 43 S 5 7 29.93 1014 10 16 0.00 0.00
1:53 am 01:53 Clear 63 17.2 46 7.8 54 54 ENE 3 6 29.93 1014 9 14 0.00 0.00
2:53 am 02:53 Clear 63 17.2 47 8.3 56 56 E 5 7 29.95 1014 10 16 0.00 0.00
3:53 am 03:53 Clear 58 14.4 42 5.6 56 56 WSW 8 13 29.96 1015 9 14 0.00 0.00
4:53 am 04:53 Clear 59 15 42 5.6 54 54 SSW 5 7 29.98 1015 10 16 0.00 0.00
5:53 am 05:53 Sunny 57 13.9 43 6.1 60 60 WNW 3 6 29.99 1016 8 13 0.00 0.00
6:53 am 06:53 Sunny 58 14.4 44 6.7 60 60 SW 5 7 30.02 1017 9 14 0.00 0.00
7:53 am 07:53 Sunny 64 17.8 48 8.9 56 56 SW 6 9 30.04 1017 10 16 0.00 0.00
8:53 am 08:53 Sunny 72 22.2 48 8.9 43 43 WNW 5 7 30.04 1017 10 16 0.00 0.00
9:53 am 09:53 Sunny 76 24.4 49 9.4 39 39 Calm 30.06 1018 10 16 0.00 0.00
10:53 am 10:53 Sunny 81 27.2 49 9.4 33 33 WNW 3 6 30.04 1017 10 16 0.00 0.00
11:53 am 11:53 Sunny 87 30.6 50 10 28 28 undefined N/A 30.03 1017 9 14 0.00 0.00
12:53 pm 12:53 Sunny 91 32.8 51 10.6 26 26 N 5 7 30.02 1017 9 14 0.00 0.00
1:53 pm 13:53 Sunny 94 34.4 48 8.9 21 21 VRB 5 7 30.00 1016 9 14 0.00 0.00
2:53 pm 14:53 Hazy 93 33.9 55 12.8 28 28 WNW 12 19 30.00 1016 4 6 0.00 0.00
3:53 pm 15:53 Hazy 96 35.6 53 11.7 23 23 undefined N/A 29.99 1016 5 8 0.00 0.00
4:53 pm 16:53 Sunny 99 37.2 50 10 19 19 WNW 6 9 29.97 1015 7 11 0.00 0.00
5:53 pm 17:53 Hazy 95 35 57 13.9 28 28 WNW 17 28 29.98 1015 5 8 0.00 0.00
6:53 pm 18:53 Hazy 94 34.4 57 13.9 29 29 NNW 9 15 29.97 1015 5 8 0.00 0.00
7:53 pm 19:53 Hazy 91 32.8 57 13.9 32 32 NNW 8 13 29.95 1014 5 8 0.00 0.00
8:53 pm 20:53 Hazy 83 28.3 58 14.4 43 43 WNW 3 6 29.96 1015 5 8 0.00 0.00
9:53 pm 21:53 Hazy 77 25 59 15 54 54 SE 8 13 29.99 1016 6 10 0.00 0.00
10:53 pm 22:53 Clear 79 26.1 59 15 50 50 NE 8 13 29.99 1016 10 16 0.00 0.00
11:53 pm 23:53 Clear 75 23.9 59 15 58 58 ENE 9 15 29.98 1015 10 16 0.00 0.00

Powered by AerisWeather